[[{"header":{"parameterUnit":"m.s-1","parameterCategory":1,"la1":30.2991,"la2":30.254,"lo1":-89.0895,"lo2":-89.0444,"dy":0.0017,"dx":0.0017,"nx":28,"ny":28,"refTime":"2023-09-20T21:00:00:Z","depth":0,"parameterNumber":2,"parameterNumberName":"U-component_of_WINDS"},"data":[0,0,0,0,0,0,0,0,0,0,0,0,0,0,0,0,0,0,0,0,0,0,0,0,0,0,0,0,0,0,0,0,0,0,0,0,0,0,0,0,0,0,0,0,0,0,0,0,0,0,0,0,0,0,0,0,0,0,-3.9746,-3.9745,0,-3.9683,-3.9682,-3.9682,-3.9535,-3.9532,-3.9529,-3.9526,-3.9465,-3.9467,-3.9468,0,0,0,0,0,0,0,0,0,0,0,0,0,-3.9743,-3.9744,-3.9746,-3.9745,-3.9744,-3.9683,-3.9682,-3.9682,-3.9536,-3.9532,-3.9528,-3.9525,-3.9465,-3.9466,-3.9468,0,0,0,0,0,0,0,0,0,0,0,0,0,-3.9719,-3.9744,-3.9746,-3.9664,-3.9656,-3.9683,-3.9682,-3.9681,-3.9536,-3.9532,-3.9527,-3.9523,-3.9465,-3.9466,-3.9468,-3.9571,0,0,-3.9474,-3.9475,0,0,0,0,0,0,0,0,-3.972,-3.9719,-3.9677,-3.967,-3.9661,-3.9612,-3.9659,-3.9645,-3.9538,-3.9582,-3.9526,-3.9521,-3.9518,-3.9515,-3.9514,-3.9568,-3.9566,-3.9474,-3.9475,-3.9476,-3.9476,0,0,0,0,0,0,0,-3.9722,-3.9721,-3.9721,-3.9676,-3.9667,-3.9632,-3.9623,-3.9656,-3.9577,-3.9578,-3.9567,-3.9561,-3.9513,-3.9512,-3.9511,-3.9565,-3.9474,-3.9475,-3.9477,-3.9477,-3.9703,-3.9707,0,0,0,0,0,0,-3.9735,-3.9723,-3.9723,-3.9719,-3.968,-3.9636,-3.9626,-3.9632,-3.9576,-3.9563,-3.9565,-3.9555,-3.9511,-3.9509,-3.9509,-3.9626,-3.9476,-3.9478,-3.9479,-3.9698,-3.9704,-3.9709,0,0,0,0,0,0,-3.9736,-3.9737,-3.9725,-3.9718,-3.9714,-3.964,-3.9649,-3.9634,-3.9633,-3.9566,-3.9552,-3.9579,-3.9508,-3.9506,-3.9557,-3.9622,-3.9478,-3.948,-3.9692,-3.97,-3.9706,-3.9862,0,0,0,0,0,0,-3.9736,-3.9738,-3.9775,-3.972,-3.9715,-3.9774,-3.9653,-3.9636,-3.9636,-3.9621,-3.9575,-3.9563,-3.9504,-3.9555,-3.9559,-3.9622,-3.9481,-3.9686,-3.9695,-3.9704,-3.9851,-3.9874,-3.9894,0,0,0,0,0,-3.9737,-3.9821,-3.9777,-3.9778,-3.976,-3.9778,-3.9775,-3.9704,-3.9642,-3.9679,-3.9637,-3.9565,-3.9615,-3.9561,-3.9564,-3.9629,-3.9681,-3.9693,-3.9703,-3.9841,-3.9869,-3.9893,0,0,0,0,0,0,-3.9886,-3.9813,-3.9763,-3.9832,-3.9813,-3.9753,-3.9798,-3.9736,-3.9734,-3.9721,-3.9634,-3.9625,-3.9688,-3.9663,-3.9606,-3.9727,-3.9636,-3.9649,-3.974,-3.9766,-3.9787,-3.9792,-3.9483,0,0,0,0,0,-3.9927,-3.9946,-3.9882,-3.9949,-3.9942,-3.9872,-3.9877,-3.9825,-3.9801,-3.9792,-3.9753,-3.9734,-3.9745,-3.9754,-3.9761,-3.9847,-3.9836,-3.9893,-3.9915,-3.9933,-3.9944,-3.9989,-4.0014,-3.9745,-3.9745,-3.9745,0,0,-4.0012,-3.9974,-3.9992,-3.9978,-3.9956,-3.998,-3.9866,-3.9895,-3.9912,-3.9797,-3.9842,-3.9814,-3.9787,-3.9856,-3.9885,-3.9838,-4.0016,-3.9947,-3.9961,-3.9963,-4.0003,-4.0029,-4.0052,-3.9753,-3.9751,-3.975,0,0,-4.0178,-4.0151,-4.0205,-4.0186,-4.0155,-4.0108,-4.0122,-4.0072,-4.0049,-4.0093,-4.0007,-4.0027,-4.0048,-4.0033,-4.0028,-4.0192,-4.0126,-4.0197,-4.0308,-4.0353,-4.0374,-4.0393,-4.0452,-4.0474,-4.0208,-4.0209,-4.0209,0,-4.0287,-4.0318,-4.0241,-4.0276,-4.0273,-4.017,-4.0225,-4.021,-4.0184,-4.0185,-4.0133,-4.0158,-4.0132,-4.0197,-4.0238,-4.0237,-4.0251,-4.0201,-4.0377,-4.0395,-4.0411,-4.0467,-4.0489,-4.0217,-4.0216,-4.0216,-4.0215,0,-4.0455,-4.0478,-4.0525,-4.0502,-4.0505,-4.055,-4.0481,-4.0494,-4.0442,-4.0402,-4.045,-4.0416,-4.0414,-4.0426,-4.0376,-4.0485,-4.0457,-4.0393,-4.03,-4.0447,-4.0498,-4.0518,-4.023,-4.0227,-4.0224,-4.0222,0,0,-4.0711,-4.0645,-4.0664,-4.0653,-4.0612,-4.0629,-4.0671,-4.0669,-4.0682,-4.0669,-4.0702,-4.0724,-4.0664,-4.0659,-4.0606,-4.0646,-4.078,-4.0577,-4.0575,-4.0616,-4.09,-4.0948,-4.0974,-4.0736,-4.074,-4.0743,-4.0902,0,-4.0867,-4.0933,-4.0866,-4.0946,-4.0967,-4.0871,-4.0907,-4.0888,-4.0852,-4.0866,-4.0827,-4.0844,-4.0764,-4.0761,-4.0796,-4.0756,-4.0835,-4.0744,-4.0768,-4.0769,-4.0777,-4.1,-4.1051,-4.1202,-4.0921,-4.0925,-4.0927,0,-4.1057,-4.1052,-4.1135,-4.109,-4.1097,-4.1131,-4.1125,-4.1139,-4.1116,-4.1087,-4.1083,-4.102,-4.1059,-4.097,-4.1024,-4.0964,-4.097,-4.0952,-4.0957,-4.0956,-4.0857,-4.1006,-4.1249,-4.1272,-4.0957,-4.0955,-4.0953,0,-4.1237,-4.1251,-4.1302,-4.1295,-4.1245,-4.1271,-4.1252,-4.1224,-4.1228,-4.1223,-4.1225,-4.1226,-4.1227,-4.123,-4.1169,-4.111,-4.1232,-4.1137,-4.1211,-4.1213,-4.124,-4.1239,-4.1488,-4.1245,-4.1245,-4.1244,-4.1244,0,-4.1418,-4.1472,-4.1382,-4.1413,-4.1472,-4.1396,-4.1457,-4.1428,-4.1404,-4.143,-4.1347,-4.1373,-4.1291,-4.131,-4.1263,-4.1316,-4.1317,-4.1296,-4.1283,-4.1303,-4.1306,-4.1305,-4.1293,-4.125,-4.1249,-4.1248,-4.1247,0,-4.1627,-4.1569,-4.1618,-4.1567,-4.1556,-4.1602,-4.1559,-4.1587,-4.1547,-4.158,-4.1584,-4.1522,-4.1539,-4.1479,-4.1487,-4.1455,-4.1534,-4.1503,-4.1541,-4.1532,-4.1609,-4.1603,-4.1866,-4.1897,-4.1635,-4.1638,-4.164,0,-4.1746,-4.1786,-4.174,-4.175,-4.1735,-4.1754,-4.1758,-4.1685,-4.1693,-4.1671,-4.1703,-4.1713,-4.1717,-4.175,-4.1706,-4.1712,-4.1681,-4.1773,-4.1681,-4.1701,-4.1683,-4.1681,-4.1685,-4.1792,-4.1795,-4.1798,-4.18,0,-4.1964,-4.1934,-4.1942,-4.1941,-4.1948,-4.1944,-4.1934,-4.1949,-4.1871,-4.1884,-4.1901,-4.1904,-4.1913,-4.1925,-4.1922,-4.1903,-4.184,-4.183,-4.1847,-4.1868,-4.1888,-4.1879,-4.1593,-4.1823,-4.1821,-4.1819,-4.1818,-4.1817,-4.2132,-4.2163,-4.2136,-4.2148,-4.2134,-4.2128,-4.2152,-4.2115,-4.2127,-4.2128,-4.2085,-4.2111,-4.2089,-4.2078,-4.2067,-4.2087,-4.2044,-4.2069,-4.2075,-4.2083,-4.2096,-4.1886,-4.2086,-4.2085,-4.2085,-4.2084,-4.2083,0,-4.2345,-4.2324,-4.2336,-4.2325,-4.2336,-4.2275,-4.2263,-4.2276,-4.2299,-4.2284,-4.229,-4.231,-4.2322,-4.2281,-4.2287,-4.2311,-4.2283,-4.2316,-4.2313,-4.231,-4.2133,-4.2118,-4.2339,-4.2339,-4.2339,-4.2339,-4.2339,-4.2339,-4.2458,-4.2508,-4.2475,-4.2518,-4.2496,-4.252,-4.2518,-4.2513,-4.25,-4.2526,-4.2535,-4.2508,-4.2483,-4.2487,-4.2496,-4.2484,-4.249,-4.2533,-4.2511,-4.2347,-4.2322,-4.2298,-4.2283,-4.2535,-4.2536,-4.2685,-4.2687,-4.2688]},{"header":{"parameterUnit":"m.s-1","parameterCategory":1,"la1":30.2991,"la2":30.254,"lo1":-89.0895,"lo2":-89.0444,"dy":0.0017,"dx":0.0017,"nx":28,"ny":28,"refTime":"2023-09-20T21:00:00:Z","depth":0,"parameterNumber":3,"parameterNumberName":"V-component_of_WINDS"},"data":[0,0,0,0,0,0,0,0,0,0,0,0,0,0,0,0,0,0,0,0,0,0,0,0,0,0,0,0,0,0,0,0,0,0,0,0,0,0,0,0,0,0,0,0,0,0,0,0,0,0,0,0,0,0,0,0,0,0,1.7566,1.7566,0,1.7547,1.7547,1.7547,1.7595,1.7596,1.7598,1.7599,1.757,1.7568,1.7566,0,0,0,0,0,0,0,0,0,0,0,0,0,1.7637,1.7635,1.7566,1.7566,1.7566,1.7547,1.7547,1.7547,1.7595,1.7596,1.7598,1.76,1.7571,1.7569,1.7566,0,0,0,0,0,0,0,0,0,0,0,0,0,1.761,1.7635,1.7566,1.7588,1.7589,1.7547,1.7547,1.7547,1.7594,1.7596,1.7599,1.7601,1.7572,1.7569,1.7566,1.7499,0,0,1.7555,1.7554,0,0,0,0,0,0,0,0,1.7612,1.7608,1.7585,1.7586,1.7588,1.7576,1.7561,1.753,1.7594,1.7592,1.7599,1.7602,1.757,1.7567,1.7558,1.7498,1.7496,1.7555,1.7553,1.7552,1.7551,0,0,0,0,0,0,0,1.7614,1.7609,1.7558,1.7584,1.7586,1.7596,1.7595,1.7556,1.7568,1.7592,1.7596,1.7593,1.7571,1.7561,1.7557,1.7496,1.7555,1.7552,1.755,1.7549,1.738,1.7378,0,0,0,0,0,0,1.7614,1.761,1.7559,1.7558,1.7606,1.7593,1.7591,1.7577,1.7568,1.757,1.7591,1.7596,1.7565,1.7561,1.7557,1.7478,1.7552,1.7549,1.7547,1.7383,1.738,1.7377,0,0,0,0,0,0,1.7615,1.7609,1.756,1.7585,1.758,1.7589,1.7573,1.7576,1.7566,1.7568,1.757,1.7579,1.7567,1.7561,1.7514,1.7477,1.7547,1.7544,1.7386,1.7382,1.7379,1.7319,0,0,0,0,0,0,1.7617,1.7609,1.7585,1.7584,1.7578,1.7519,1.7571,1.7574,1.7561,1.7566,1.7557,1.7557,1.7568,1.7518,1.751,1.7474,1.7542,1.7389,1.7384,1.738,1.7324,1.7314,1.7305,0,0,0,0,0,1.7619,1.7567,1.7584,1.7577,1.7549,1.7517,1.7513,1.7529,1.7558,1.7533,1.7535,1.7558,1.7484,1.7513,1.7504,1.7466,1.7391,1.7385,1.738,1.7328,1.7316,1.7305,0,0,0,0,0,0,1.7559,1.7567,1.7586,1.7532,1.7524,1.7525,1.7493,1.7515,1.7496,1.7501,1.752,1.7517,1.7466,1.7462,1.7495,1.7402,1.7442,1.7434,1.7406,1.7394,1.7384,1.7384,1.7539,0,0,0,0,0,1.7541,1.7516,1.7524,1.7475,1.7471,1.7483,1.747,1.7484,1.7474,1.747,1.7468,1.7456,1.743,1.7412,1.7389,1.7326,1.7323,1.7295,1.7286,1.7278,1.7269,1.7235,1.7222,1.7359,1.7359,1.7359,0,0,1.7499,1.7501,1.7484,1.7463,1.7459,1.7431,1.7479,1.7448,1.7426,1.7464,1.7419,1.7418,1.7406,1.735,1.7326,1.7345,1.7232,1.727,1.7264,1.726,1.7228,1.7215,1.7204,1.7355,1.7356,1.7356,0,0,1.7411,1.7411,1.7371,1.7366,1.736,1.7369,1.736,1.7359,1.736,1.7317,1.7345,1.7319,1.7274,1.7265,1.7253,1.7165,1.7185,1.7157,1.7104,1.7071,1.706,1.7051,1.7017,1.7005,1.715,1.715,1.715,0,1.7359,1.7322,1.7346,1.7313,1.7303,1.7341,1.7299,1.7293,1.7277,1.7268,1.7292,1.7238,1.7232,1.7175,1.7154,1.7145,1.7132,1.7156,1.7061,1.7051,1.7043,1.7011,1.6998,1.7146,1.7147,1.7147,1.7147,0,1.7258,1.7232,1.72,1.7188,1.7175,1.7137,1.7154,1.7137,1.7154,1.716,1.7115,1.7111,1.7087,1.7075,1.7089,1.7019,1.7032,1.7058,1.7098,1.7026,1.6996,1.6984,1.7141,1.7142,1.7143,1.7144,0,0,1.7126,1.7133,1.712,1.7116,1.7114,1.7092,1.7057,1.7037,1.7021,1.7011,1.698,1.6943,1.6968,1.6956,1.697,1.6941,1.6869,1.697,1.697,1.6949,1.6791,1.6769,1.6755,1.6885,1.6883,1.6881,1.6791,0,1.7037,1.6979,1.7002,1.6941,1.6916,1.6954,1.6923,1.6917,1.6922,1.69,1.6906,1.6879,1.6915,1.6908,1.6881,1.6884,1.6837,1.6891,1.6853,1.6851,1.6851,1.674,1.6716,1.6631,1.678,1.6778,1.6777,0,1.6924,1.6913,1.6851,1.6855,1.6845,1.6817,1.6801,1.6781,1.6775,1.6781,1.677,1.6791,1.6754,1.6798,1.6747,1.6783,1.6769,1.6768,1.6765,1.6759,1.6807,1.6727,1.6605,1.6591,1.6759,1.676,1.6762,0,1.6832,1.6801,1.676,1.6755,1.6759,1.6739,1.6739,1.6736,1.6723,1.6709,1.6701,1.6682,1.667,1.6654,1.6669,1.67,1.6615,1.666,1.6616,1.6616,1.6593,1.6593,1.6463,1.659,1.659,1.659,1.659,0,1.6728,1.6687,1.6719,1.6692,1.6648,1.6675,1.663,1.6634,1.6632,1.6606,1.6637,1.6612,1.6634,1.661,1.6621,1.6576,1.6571,1.6573,1.6576,1.6569,1.6568,1.6557,1.6562,1.6587,1.6587,1.6588,1.6589,0,1.6614,1.6634,1.6591,1.6601,1.6602,1.6569,1.6576,1.6551,1.6562,1.6528,1.6522,1.6536,1.651,1.6525,1.6496,1.6504,1.6445,1.6457,1.6447,1.6449,1.6404,1.6407,1.6259,1.624,1.6382,1.6381,1.6379,0,1.6545,1.6515,1.6523,1.651,1.6509,1.6487,1.6475,1.6501,1.6487,1.648,1.6456,1.6434,1.6416,1.6372,1.6378,1.6357,1.6367,1.6317,1.6364,1.6357,1.6363,1.6364,1.636,1.6306,1.6304,1.6303,1.6302,0,1.6419,1.6431,1.6415,1.6403,1.6389,1.638,1.6372,1.6359,1.6385,1.6368,1.6344,1.6331,1.6305,1.6281,1.6264,1.6261,1.6284,1.6289,1.6277,1.6267,1.6261,1.6261,1.6418,1.629,1.6291,1.6292,1.6293,1.6293,1.6323,1.6299,1.6301,1.6282,1.6281,1.6275,1.6252,1.6262,1.6243,1.6226,1.6242,1.6212,1.6208,1.6188,1.6183,1.6159,1.6178,1.6162,1.6157,1.6152,1.6145,1.6269,1.6156,1.6156,1.6157,1.6157,1.6157,0,1.6197,1.6202,1.6185,1.6176,1.6161,1.619,1.6184,1.6169,1.6143,1.614,1.6124,1.6096,1.6074,1.608,1.606,1.6039,1.6049,1.6033,1.6032,1.6031,1.6129,1.614,1.6025,1.6025,1.6025,1.6025,1.6025,1.6025,1.6129,1.6089,1.6102,1.6062,1.6067,1.604,1.6035,1.6028,1.6026,1.5994,1.5977,1.5984,1.5983,1.5964,1.5945,1.5947,1.5937,1.5915,1.5921,1.6011,1.6024,1.6037,1.6047,1.5914,1.5914,1.5825,1.5824,1.5823]}]]